Location: Castillon
(43.1358°N, 0.8654°E)
Time: 19:50:34
(UTC+00:00)

Cosmos 1340 - Pass Details

Date: 24 January 2021
Orbit: 500 x 504 km, 81.2° (Epoch: 28 February)

Event Time Altitude Azimuth Distance (km) Brightness Sun altitude
Rises 17:46:06 0° 160° (SSE) 2,582 6.2 -8.9°
Reaches altitude 10° 17:48:28 10° 146° (SE) 1,703 5.2 -9.3°
Maximum altitude 17:51:31 24° 92° (E) 1,074 3.7 -9.8°
Drops below altitude 10° 17:54:35 10° 37° (NE) 1,715 4.9 -10.4°
Enters shadow 17:54:51 - 35° (NE) 1,808 5.0 -10.4°
